COSMOS 249 DEB, 19317

Orbit data source: Space-Track

COSMOS 249 DEB, 19317 is space debris in LEO originally from a launch on Sun, 20 Oct 1968 UTC launched from the Tyuratam Missile And Space Complex (TTMTR). Debris objects in space refer to the collection of defunct objects orbiting the Earth. Examples of debris include non-operational satellites, rocket bodies, and fragments generated from explosions, collisions, or faulty payload assembly.

Loading next visibility...
Identifier
19317, 1968-091DH
Orbit
LEO
Country
Flag of CISCIS
Related business
Manufacturer
Unknown
Mission
Spacecraft
Bus & Motor
Unknown
Mass
Unknown
Launch date (UTC)
1968-10-20 (58 years ago)
Launch vehicle
Unknown
Launch site
Tyuratam Missile And Space Complex (TTMTR)
Object type
Payload
Rocket body
Debris
Shape & HBR
Unknown shape, 0.1 m
Radar Cross Section
Medium (>0.1 m² and <1 m²)

Expand to show TLE details & history
Last TLE update: 1 day ago

TLE from 1 day ago
0 COSMOS 249 DEB
1 19317U 68091DH  26170.68208387  .00000483  00000-0  21466-3 0  9990
2 19317  62.8475 275.8043 0719669 217.2883 137.6065 13.42954814847708
Epoch: 2026-06-19T16:22Z
TLE epoch observation values (Epoch: 2026-06-19T16:22:12.046Z)
Latitude
0.00003°
Longitude
122.34657°
Altitude
1,513.668 km
Speed
6.909 km/s
True Right ascension
18h 23m 13s
True Declination
0° 00' 00"
Sunlit
Object was in full shadow at epoch
Visualization orbit readout
Latitude
Unknown
Longitude
Unknown
Altitude
Unknown
Speed
Unknown
Apparent Right ascension
Unknown
Apparent Declination
Unknown
Sunlit
N/A
Visualization observer readout
Local Sidereal Time
11:43:40
Azimuth
Unknown
Elevation
Unknown
Doppler factor
Unknown
Orbital elements
Apogee altitude
1,635.159 km
Perigee altitude
559.208 km
Semi-major axis
7,475.32 km
Eccentricity
0.07197
Inclination
62.8475°
RAAN
275.8043°
Arg. of periapsis
217.2883°
True anomaly
142.81237°
Mean anomaly
137.6065°
Eccentric anomaly
140.24352°
Mean motion
3.35814 °/min
Orbital period
107.2 mins
BSTAR
0.00021466
Loading maneuver chart data...
Computing Atmospheric mass density...

Documentation

Showing up to 5 results
|